Overview Statistics Trail Chart Weather Telemetry Raw packets
 

This is the latest recevied weather packets stored in our database for station/object IR9AK-10. If no packets are shown the sender has not sent any weather packets the latest 10 day(s).

<< 47 48 49 50 51 52 53 >>
Time Temp. Humidity Pressure Rain* Wind** Luminosity Snow
1787869340 42.78° C 32% 1063.3 hPa - - - -
1787868740 42.78° C 32% 1063.3 hPa - - - -
1787868141 43.33° C 32% 1063.4 hPa - - - -
1787867543 42.22° C 30% 1063.4 hPa - - - -
1787866943 42.22° C 28% 1063.4 hPa - - - -
1787866344 42.22° C 29% 1063.3 hPa - - - -
1787865659 41.67° C 31% 1063.2 hPa - - - -
1787865059 41.67° C 32% 1063.1 hPa - - - -
1787864460 41.11° C 33% 1063.2 hPa - - - -
1787863861 41.67° C 35% 1063.4 hPa - - - -
1787863261 41.67° C 36% 1063.6 hPa - - - -
1787862661 41.67° C 35% 1063.5 hPa - - - -
1787862062 41.67° C 10% - - - - -
1787861463 42.22° C 36% 1063.5 hPa - - - -
1787860863 42.22° C 37% 1063.5 hPa - - - -
1787860263 42.22° C 37% 1063.6 hPa - - - -
1787859665 42.22° C 37% 1063.6 hPa - - - -
1787859067 42.22° C 38% 1063.5 hPa - - - -
1787858468 42.22° C 39% 1063.5 hPa - - - -
1787857869 42.22° C 40% 1063.3 hPa - - - -
1787857269 42.22° C 38% 1063 hPa - - - -
1787856670 42.78° C 36% 1062.7 hPa - - - -
1787856071 42.78° C 33% 1062.3 hPa - - - -
1787855472 42.78° C 37% 1062.2 hPa - - - -
1787854872 43.33° C 41% 1062.2 hPa - - - -

* Rain since midnight (hover to see other rain measurements)
** Current wind speed in m/s (hover to see current wind gust speed)